Lid_Strength_Index
5 4 5 6 6 7 6 7 7 4 4 7 8 9 8 9 6 6 7 7 8 9 8 8 9 9 9 6 9 10 8 8 10 9 8 8 8 8 8 11 11 11 11 10
5 4 5 6 7 7 6 7 7 3 4 9 9 7 7 6 7 7 7 8 7 7 8 9 8 8 6 6 9 9 8 9 10 9 9 9 9 9 8 8 8 11 11 10
5 5 5 6 7 7 5 6 8 5 5 6 8 9 9 9 6 7 6 7 7 8 8 8 8 8 6 5 6 4 7 10 9 10 9 8 9 8 8 8 10 10 10 8
5 5 5 6 6 7 6 6 8 6 9 8 7 7 8 9 9 6 6 8 8 9 10 9 8 8 7 6 5 6 8 9 10 9 9 9 9 8 8 9 8 10 9 9
5 5 4 5 6 6 5 7 7 5 7 7 8 9 9 9 8 8 8 9 8 8 9 9 10 8 8 8 6 7 7 10 9 10 8 9 9 8 8 8 8 8 8 8
5 4 4 5 6 6 6 5 5 6 8 8 8 9 8 8 7 7 6 7 8 8 8 6 6 6 6 6 8 8 8 9 10 11 10 9 10 8 7 7 7 7 9 6
5 4 4 4 5 5 5 6 6 7 9 8 8 8 8 8 7 8 6 6 7 6 4 5 5 6 6 6 7 6 9 10 10 10 10 14 8 6 6 8 7 6 6 6
5 5 4 4 5 5 6 5 6 7 9 8 8 8 8 7 6 7 7 6 5 3 5 8 9 9 9 9 7 7 7 8 11 12 12 10 8 8 8 8 7 6 6 6
5 5 5 4 5 5 6 6 4 6 8 8 6 8 7 8 8 7 7 4 3 4 7 9 12 13 11 11 10 7 8 7 10 11 13 13 8 7 6 7 10 6 6 6
5 4 4 4 4 5 6 6 5 6 8 6 6 7 7 6 7 8 7 7 6 5 9 10 12 12 10 13 12 11 10 10 12 11 12 10 7 7 6 11 10 7 6 6
4 4 4 4 3 4 5 5 4 5 6 6 5 5 6 6 6 9 7 7 7 8 11 11 11 12 11 11 10 11 11 12 12 12 13 14 6 7 10 8 6 6 6 6
4 4 4 4 3 4 4 6 4 3 6 6 5 4 4 4 4 5 5 7 7 7 9 9 9 11 11 12 13 9 12 10 11 11 10 7 6 6 5 5 6 6 6 5
4 4 4 4 4 4 4 5 3 4 6 7 8 7 5 3 3 3 6 5 5 6 5 7 8 11 9 13 12 10 9 7 10 10 8 7 6 5 5 4 5 4 4 4
4 4 4 4 4 4 4 4 4 5 6 10 8 5 5 3 3 4 4 4 4 5 5 7 8 10 7 10 9 10 8 8 9 9 7 6 6 5 5 4 4 4 4 4
4 4 4 4 4 5 4 4 4 4 6 10 9 5 4 4 4 4 4 5 5 6 7 7 8 7 8 7 8 10 7 8 9 9 7 7 6 5 4 5 5 4 4 4
3 4 4 4 4 5 5 8 4 4 5 7 10 5 6 4 4 5 5 5 5 5 6 7 6 5 7 10 11 7 6 5 5 6 5 5 4 4 3 4 4 4 4 3
3 3 3 4 5 5 7 8 6 5 4 7 10 8 5 5 4 5 5 4 5 5 6 7 6 6 7 9 11 7 5 5 4 4 4 5 4 5 4 4 3 4 3 3
3 3 4 4 5 5 6 5 5 4 6 6 9 9 8 5 6 7 4 6 5 5 6 5 7 6 7 10 7 5 5 5 4 4 3 4 3 3 3 3 3 5 5 4
3 3 3 4 5 6 6 4 4 4 6 9 9 10 11 5 6 5 5 5 9 5 8 7 7 8 10 7 7 6 5 5 5 4 4 4 4 4 4 4 4 5 5 4
3 4 6 8 5 3 3 5 7 7 7 7 10 7 9 6 6 6 7 7 9 10 8 5 9 9 6 5 4 4 4 4 4 5 5 5 4 4 4 5 4 4 4 4
5 6 7 4 2 5 6 8 9 9 10 8 8 7 8 5 8 8 6 9 8 11 9 9 9 10 7 5 5 4 4 4 3 3 3 3 4 4 4 5 4 4 4 4
5 5 4 5 7 8 9 10 9 10 10 8 8 7 6 5 5 8 7 9 9 12 7 10 12 8 6 6 5 5 4 4 4 4 3 3 3 3 4 4 4 4 3 3
4 5 7 7 8 12 12 13 11 11 7 7 7 8 7 6 5 8 9 11 11 7 10 11 9 7 6 5 5 5 4 4 4 3 3 3 3 3 3 4 4 3 3 3
6 8 13 10 11 10 9 9 8 6 6 6 7 8 8 7 8 8 11 9 8 12 13 12 8 7 6 5 4 5 5 4 4 4 4 4 4 4 3 3 3 3 3 3
7 7 12 10 7 7 6 5 6 5 5 6 7 7 7 9 9 9 9 11 13 11 11 9 7 6 5 5 5 5 5 4 4 4 4 4 4 4 4 3 3 3 3 3
6 7 9 7 8 8 7 7 7 4 6 6 6 9 10 10 10 11 11 12 13 10 8 7 6 6 5 5 5 5 4 4 4 4 4 4 4 4 4 3 3 2 2 3
7 8 6 7 7 8 7 6 6 4 6 9 8 11 11 8 11 12 9 10 9 7 6 5 5 5 5 5 5 4 4 4 4 4 3 4 4 3 3 4 3 2 2 2